| time (UTC) | temp C | wind direction | speed KPH | gust KPH | rain 1hr cm | rain 24hr cm | rain mn cm | humidity % | barometer mb |
| 20260906215103 | 32 | 107 | 0.0 | 11.3 | 0.00 | 0.00 | 0.00 | 31 | 1015.5 |
| 20260906214103 | 32 | 100 | 4.8 | 9.7 | 0.00 | 0.00 | 0.00 | 31 | 1015.6 |
| 20260906213102 | 31 | 75 | 0.0 | 8.0 | 0.00 | 0.00 | 0.00 | 32 | 1016.0 |
| 20260906212103 | 31 | 123 | 1.6 | 11.3 | 0.00 | 0.00 | 0.00 | 32 | 1016.0 |
| 20260906211102 | 32 | 109 | 4.8 | 8.0 | 0.00 | 0.00 | 0.00 | 30 | 1016.2 |
| 20260906204126 | 33 | 84 | 4.8 | 12.9 | 0.00 | 0.00 | 0.00 | 31 | 1016.4 |
| 20260906203105 | 33 | 18 | 0.0 | 6.4 | 0.00 | 0.00 | 0.00 | 31 | 1016.6 |
| 20260906202126 | 33 | 159 | 6.4 | 9.7 | 0.00 | 0.00 | 0.00 | 30 | 1016.8 |
| 20260906201105 | 33 | 4 | 1.6 | 8.0 | 0.00 | 0.00 | 0.00 | 28 | 1016.7 |
| 20260906200105 | 32 | 100 | 1.6 | 12.9 | 0.00 | 0.00 | 0.00 | 28 | 1016.7 |
| 20260906195105 | 32 | 81 | 3.2 | 14.5 | 0.00 | 0.00 | 0.00 | 30 | 1016.9 |
| 20260906194105 | 32 | 61 | 6.4 | 11.3 | 0.00 | 0.00 | 0.00 | 32 | 1016.9 |
| 20260906193105 | 32 | 341 | 4.8 | 9.7 | 0.00 | 0.00 | 0.00 | 30 | 1017.0 |
| 20260906192126 | 32 | 67 | 4.8 | 9.7 | 0.00 | 0.00 | 0.00 | 33 | 1017.2 |
| 20260906191104 | 32 | 63 | 3.2 | 8.0 | 0.00 | 0.00 | 0.00 | 35 | 1017.2 |
| 20260906190105 | 31 | 14 | 1.6 | 9.7 | 0.00 | 0.00 | 0.00 | 38 | 1017.5 |
| 20260906185105 | 31 | 104 | 3.2 | 11.3 | 0.00 | 0.00 | 0.00 | 38 | 1017.7 |
| 20260906184105 | 30 | 123 | 4.8 | 14.5 | 0.00 | 0.00 | 0.00 | 41 | 1017.9 |
| 20260906183104 | 30 | 40 | 3.2 | 8.0 | 0.00 | 0.00 | 0.00 | 40 | 1017.9 |
| 20260906182105 | 30 | 333 | 1.6 | 3.2 | 0.00 | 0.00 | 0.00 | 42 | 1018.2 |
| 20260906181106 | 29 | 220 | 0.0 | 9.7 | 0.00 | 0.00 | 0.00 | 44 | 1018.3 |
| 20260906180105 | 28 | 134 | 3.2 | 6.4 | 0.00 | 0.00 | 0.00 | 47 | 1018.7 |
| 20260906175104 | 28 | 81 | 1.6 | 9.7 | 0.00 | 0.00 | 0.00 | 49 | 1018.9 |
| 20260906174105 | 27 | 176 | 3.2 | 8.0 | 0.00 | 0.00 | 0.00 | 50 | 1019.0 |
| 20260906173105 | 27 | 290 | 3.2 | 8.0 | 0.00 | 0.00 | 0.00 | 50 | 1018.9 |
| 20260906172104 | 26 | 321 | 4.8 | 9.7 | 0.00 | 0.00 | 0.00 | 50 | 1019.2 |
| 20260906171105 | 26 | 276 | 1.6 | 8.0 | 0.00 | 0.00 | 0.00 | 51 | 1019.4 |
| 20260906170106 | 26 | 109 | 1.6 | 8.0 | 0.00 | 0.00 | 0.00 | 52 | 1019.6 |
| 20260906165105 | 26 | 257 | 3.2 | 8.0 | 0.00 | 0.00 | 0.00 | 52 | 1019.7 |
| 20260906164125 | 25 | 233 | 1.6 | 8.0 | 0.00 | 0.00 | 0.00 | 55 | 1019.7 |
| 20260906163105 | 25 | 109 | 4.8 | 9.7 | 0.00 | 0.00 | 0.00 | 56 | 1019.6 |
| 20260906162126 | 24 | 49 | 1.6 | 12.9 | 0.00 | 0.00 | 0.00 | 59 | 1019.6 |
| 20260906161105 | 23 | 3 | 3.2 | 8.0 | 0.00 | 0.00 | 0.00 | 60 | 1019.5 |
| 20260906160105 | 23 | 27 | 1.6 | 8.0 | 0.00 | 0.00 | 0.00 | 61 | 1019.6 |
| 20260906155105 | 22 | 357 | 3.2 | 8.0 | 0.00 | 0.00 | 0.00 | 64 | 1019.7 |
| 20260906154126 | 22 | 8 | 1.6 | 9.7 | 0.00 | 0.00 | 0.00 | 65 | 1019.7 |
| 20260906153104 | 22 | 351 | 3.2 | 9.7 | 0.00 | 0.00 | 0.00 | 67 | 1019.8 |
| 20260906152105 | 21 | 355 | 1.6 | 8.0 | 0.00 | 0.00 | 0.00 | 68 | 1019.8 |
| 20260906151105 | 21 | 358 | 3.2 | 6.4 | 0.00 | 0.00 | 0.00 | 70 | 1019.8 |
| 20260906150104 | 21 | 352 | 1.6 | 8.0 | 0.00 | 0.00 | 0.00 | 70 | 1020.0 |
| 20260906145126 | 20 | 23 | 1.6 | 8.0 | 0.00 | 0.00 | 0.00 | 71 | 1019.9 |
| 20260906144105 | 20 | 37 | 1.6 | 4.8 | 0.00 | 0.00 | 0.00 | 74 | 1019.9 |
| 20260906143104 | 19 | 14 | 0.0 | 3.2 | 0.00 | 0.00 | 0.00 | 77 | 1019.8 |
| 20260906142104 | 18 | 7 | 0.0 | 3.2 | 0.00 | 0.00 | 0.00 | 79 | 1019.9 |
| 20260906141104 | 18 | 341 | 3.2 | 9.7 | 0.00 | 0.00 | 0.00 | 79 | 1020.0 |
| 20260906140105 | 17 | 331 | 6.4 | 9.7 | 0.00 | 0.00 | 0.00 | 80 | 1019.8 |
| 20260906135104 | 17 | 343 | 3.2 | 8.0 | 0.00 | 0.00 | 0.00 | 81 | 1019.8 |
| 20260906134104 | 16 | 345 | 0.0 | 3.2 | 0.00 | 0.00 | 0.00 | 82 | 1019.8 |
| 20260906133104 | 16 | 343 | 1.6 | 6.4 | 0.00 | 0.00 | 0.00 | 82 | 1019.7 |
| 20260906132125 | 16 | 283 | 1.6 | 3.2 | 0.00 | 0.00 | 0.00 | 82 | 1019.8 |
| 20260906131147 | 16 | 287 | 0.0 | 3.2 | 0.00 | 0.00 | 0.00 | 81 | 1019.7 |
| 20260906130126 | 16 | 341 | 3.2 | 6.4 | 0.00 | 0.00 | 0.00 | 81 | 1019.5 |
| 20260906125104 | 16 | 331 | 0.0 | 3.2 | 0.00 | 0.00 | 0.00 | 81 | 1019.5 |
| 20260906124104 | 16 | 345 | 0.0 | 1.6 | 0.00 | 0.00 | 0.00 | 79 | 1019.5 |
| 20260906123125 | 16 | 344 | 0.0 | 6.4 | 0.00 | 0.00 | 0.00 | 79 | 1019.4 |
| 20260906122104 | 16 | 326 | 0.0 | 0.0 | 0.00 | 0.00 | 0.00 | 79 | 1019.3 |
| 20260906121104 | 16 | 326 | 0.0 | 0.0 | 0.00 | 0.00 | 0.00 | 78 | 1019.3 |
| 20260906120104 | 16 | 326 | 0.0 | 0.0 | 0.00 | 0.00 | 0.00 | 79 | 1019.3 |
| 20260906113104 | 16 | 338 | 0.0 | 1.6 | 0.00 | 0.00 | 0.00 | 78 | 1019.4 |
| 20260906112104 | 16 | 330 | 0.0 | 6.4 | 0.00 | 0.00 | 0.00 | 78 | 1019.2 |
| 20260906111104 | 16 | 294 | 1.6 | 3.2 | 0.00 | 0.00 | 0.00 | 78 | 1019.2 |
| 20260906110125 | 16 | 333 | 0.0 | 3.2 | 0.00 | 0.00 | 0.00 | 78 | 1019.1 |
| 20260906105105 | 17 | 329 | 0.0 | 1.6 | 0.00 | 0.00 | 0.00 | 78 | 1019.2 |
| 20260906104104 | 17 | 330 | 0.0 | 1.6 | 0.00 | 0.00 | 0.00 | 78 | 1019.1 |
| 20260906103104 | 17 | 19 | 0.0 | 0.0 | 0.00 | 0.00 | 0.00 | 76 | 1019.0 |
| 20260906102105 | 17 | 19 | 0.0 | 1.6 | 0.00 | 0.00 | 0.00 | 76 | 1019.1 |
| 20260906101105 | 17 | 19 | 0.0 | 1.6 | 0.00 | 0.00 | 0.00 | 76 | 1019.1 |
| 20260906100125 | 18 | 19 | 0.0 | 1.6 | 0.00 | 0.00 | 0.00 | 75 | 1019.2 |
| 20260906095104 | 18 | 19 | 0.0 | 0.0 | 0.00 | 0.00 | 0.00 | 73 | 1019.2 |
| 20260906094105 | 18 | 19 | 0.0 | 0.0 | 0.00 | 0.00 | 0.00 | 73 | 1019.0 |
| 20260906093104 | 18 | 19 | 0.0 | 1.6 | 0.00 | 0.00 | 0.00 | 72 | 1019.0 |
| 20260906092104 | 18 | 19 | 0.0 | 0.0 | 0.00 | 0.00 | 0.00 | 70 | 1018.9 |
| 20260906091104 | 18 | 19 | 0.0 | 3.2 | 0.00 | 0.00 | 0.00 | 69 | 1018.7 |
| 20260906090103 | 18 | 19 | 1.6 | 3.2 | 0.00 | 0.00 | 0.00 | 68 | 1018.4 |
| 20260906085104 | 18 | 19 | 0.0 | 1.6 | 0.00 | 0.00 | 0.00 | 68 | 1018.3 |
| 20260906084104 | 19 | 18 | 1.6 | 3.2 | 0.00 | 0.00 | 0.00 | 68 | 1018.3 |
| 20260906083146 | 19 | 18 | 0.0 | 3.2 | 0.00 | 0.00 | 0.00 | 67 | 1018.4 |
| 20260906082104 | 19 | 18 | 1.6 | 3.2 | 0.00 | 0.00 | 0.00 | 67 | 1018.5 |
| 20260906081104 | 19 | 9 | 0.0 | 3.2 | 0.00 | 0.00 | 0.00 | 65 | 1018.7 |
| 20260906080124 | 19 | 14 | 1.6 | 4.8 | 0.00 | 0.00 | 0.00 | 65 | 1018.6 |
| 20260906075104 | 19 | 21 | 1.6 | 9.7 | 0.00 | 0.00 | 0.00 | 64 | 1018.5 |
| 20260906074103 | 20 | 339 | 4.8 | 9.7 | 0.00 | 0.00 | 0.00 | 61 | 1018.7 |
| 20260906073104 | 20 | 326 | 3.2 | 8.0 | 0.00 | 0.00 | 0.00 | 57 | 1018.6 |
| 20260906072104 | 20 | 343 | 1.6 | 8.0 | 0.00 | 0.00 | 0.00 | 54 | 1018.4 |
| 20260906071104 | 20 | 336 | 3.2 | 9.7 | 0.00 | 0.00 | 0.00 | 51 | 1018.4 |
| 20260906070104 | 20 | 334 | 6.4 | 9.7 | 0.00 | 0.00 | 0.00 | 49 | 1018.5 |
| 20260906065104 | 20 | 341 | 3.2 | 9.7 | 0.00 | 0.00 | 0.00 | 48 | 1018.6 |
| 20260906064103 | 20 | 328 | 4.8 | 9.7 | 0.00 | 0.00 | 0.00 | 49 | 1018.5 |
| 20260906063104 | 20 | 348 | 1.6 | 6.4 | 0.00 | 0.00 | 0.00 | 52 | 1018.4 |
| 20260906062103 | 20 | 309 | 3.2 | 8.0 | 0.00 | 0.00 | 0.00 | 52 | 1018.4 |
| 20260906061104 | 20 | 170 | 1.6 | 3.2 | 0.00 | 0.00 | 0.00 | 50 | 1018.5 |
| 20260906060103 | 21 | 170 | 0.0 | 1.6 | 0.00 | 0.00 | 0.00 | 48 | 1018.6 |
| 20260906055104 | 21 | 155 | 0.0 | 1.6 | 0.00 | 0.00 | 0.00 | 50 | 1018.6 |
| 20260906054103 | 21 | 160 | 0.0 | 3.2 | 0.00 | 0.00 | 0.00 | 47 | 1018.7 |
| 20260906053104 | 21 | 231 | 0.0 | 3.2 | 0.00 | 0.00 | 0.00 | 48 | 1018.6 |
| 20260906052103 | 21 | 231 | 1.6 | 4.8 | 0.00 | 0.00 | 0.00 | 47 | 1018.6 |
| 20260906051104 | 21 | 287 | 0.0 | 6.4 | 0.00 | 0.00 | 0.00 | 45 | 1018.5 |
| 20260906050104 | 21 | 232 | 1.6 | 6.4 | 0.00 | 0.00 | 0.00 | 47 | 1018.6 |
| 20260906045124 | 21 | 289 | 1.6 | 6.4 | 0.00 | 0.00 | 0.00 | 45 | 1018.2 |
| 20260906044125 | 22 | 344 | 3.2 | 3.2 | 0.00 | 0.00 | 0.00 | 42 | 1017.9 |
| 20260906043103 | 22 | 344 | 1.6 | 3.2 | 0.00 | 0.00 | 0.00 | 44 | 1017.8 |
| 20260906042104 | 22 | 78 | 0.0 | 1.6 | 0.00 | 0.00 | 0.00 | 42 | 1017.8 |
| 20260906041103 | 22 | 85 | 0.0 | 3.2 | 0.00 | 0.00 | 0.00 | 42 | 1017.7 |
| 20260906040104 | 22 | 83 | 1.6 | 8.0 | 0.00 | 0.00 | 0.00 | 42 | 1017.6 |
| 20260906035103 | 23 | 56 | 1.6 | 3.2 | 0.00 | 0.00 | 0.00 | 40 | 1017.8 |
| 20260906034103 | 23 | 7 | 1.6 | 3.2 | 0.00 | 0.00 | 0.00 | 39 | 1017.5 |
| 20260906033104 | 23 | 344 | 1.6 | 8.0 | 0.00 | 0.00 | 0.00 | 38 | 1017.4 |
| 20260906032125 | 24 | 359 | 1.6 | 8.0 | 0.00 | 0.00 | 0.00 | 37 | 1017.5 |
| 20260906031103 | 24 | 17 | 1.6 | 6.4 | 0.00 | 0.00 | 0.00 | 35 | 1017.3 |
| 20260906030104 | 25 | 354 | 1.6 | 6.4 | 0.00 | 0.00 | 0.00 | 34 | 1017.0 |
| 20260906025103 | 25 | 20 | 1.6 | 3.2 | 0.00 | 0.00 | 0.00 | 33 | 1017.1 |
| 20260906024103 | 25 | 344 | 0.0 | 3.2 | 0.00 | 0.00 | 0.00 | 32 | 1017.0 |
| 20260906023103 | 25 | 11 | 1.6 | 9.7 | 0.00 | 0.00 | 0.00 | 31 | 1017.0 |
| 20260906022103 | 26 | 332 | 4.8 | 11.3 | 0.00 | 0.00 | 0.00 | 31 | 1016.8 |
| 20260906021104 | 26 | 7 | 1.6 | 9.7 | 0.00 | 0.00 | 0.00 | 31 | 1016.9 |
| 20260906015103 | 27 | 333 | 8.0 | 12.9 | 0.00 | 0.00 | 0.00 | 29 | 1016.5 |
| 20260906014103 | 27 | 335 | 6.4 | 11.3 | 0.00 | 0.00 | 0.00 | 28 | 1016.5 |
| 20260906013104 | 28 | 315 | 6.4 | 14.5 | 0.00 | 0.00 | 0.00 | 26 | 1016.3 |
| 20260906012103 | 28 | 322 | 8.0 | 19.3 | 0.00 | 0.00 | 0.00 | 25 | 1016.3 |
| 20260906011103 | 29 | 301 | 11.3 | 20.9 | 0.00 | 0.00 | 0.00 | 25 | 1016.2 |
| 20260906010124 | 30 | 329 | 8.0 | 17.7 | 0.00 | 0.00 | 0.00 | 23 | 1016.2 |
| 20260906005104 | 30 | 298 | 9.7 | 24.1 | 0.00 | 0.00 | 0.00 | 22 | 1016.2 |
| 20260906004103 | 31 | 315 | 8.0 | 19.3 | 0.00 | 0.00 | 0.00 | 21 | 1016.3 |
| 20260906003102 | 31 | 298 | 4.8 | 9.7 | 0.00 | 0.00 | 0.00 | 20 | 1016.3 |
| 20260906002103 | 32 | 311 | 4.8 | 8.0 | 0.00 | 0.00 | 0.00 | 19 | 1016.0 |
| 20260906001146 | 32 | 285 | 4.8 | 8.0 | 0.00 | 0.00 | 0.00 | 18 | 1016.0 |
| 20260905235103 | 35 | 309 | 1.6 | 3.2 | 0.00 | 0.00 | 0.00 | 16 | 1016.0 |
| 20260905234103 | 36 | 329 | 0.0 | 3.2 | 0.00 | 0.00 | 0.00 | 18 | 1015.8 |
| 20260905233103 | 36 | 4 | 0.0 | 6.4 | 0.00 | 0.00 | 0.00 | 14 | 1015.9 |
| 20260905232103 | 37 | 0 | 1.6 | 9.7 | 0.00 | 0.00 | 0.00 | 14 | 1015.9 |
| 20260905231124 | 37 | 5 | 3.2 | 11.3 | 0.00 | 0.00 | 0.00 | 14 | 1015.8 |
| 20260905230103 | 37 | 13 | 1.6 | 6.4 | 0.00 | 0.00 | 0.00 | 14 | 1015.8 |
| 20260905225103 | 37 | 332 | 3.2 | 8.0 | 0.00 | 0.00 | 0.00 | 13 | 1015.7 |
| 20260905224102 | 37 | 23 | 1.6 | 6.4 | 0.00 | 0.00 | 0.00 | 14 | 1015.7 |
| 20260905223103 | 37 | 315 | 1.6 | 9.7 | 0.00 | 0.00 | 0.00 | 14 | 1015.7 |
| 20260905222103 | 37 | 19 | 1.6 | 6.4 | 0.00 | 0.00 | 0.00 | 14 | 1015.8 |
| 20260905221103 | 37 | 112 | 3.2 | 9.7 | 0.00 | 0.00 | 0.00 | 13 | 1015.8 |
| 20260905220123 | 37 | 67 | 1.6 | 6.4 | 0.00 | 0.00 | 0.00 | 15 | 1016.0 |